Location: Melita
(38.4566°N, 122.6369°W)
Time: 10:11:53
(UTC+00:00)

Cosmos 1980 Rocket - Pass Details

Date: 24 January 2020
Orbit: 830 x 849 km, 71.0° (Epoch: 18 February)

Event Time Altitude Azimuth Distance (km) Brightness Sun altitude
Exits shadow 12:20:21 28° 40° (NE) 1,525 3.8 -35.5°
Drops below altitude 10° 12:23:03 10° 30° (NNE) 2,471 4.9 -35.0°
Sets 12:25:31 0° 27° (NNE) 3,407 5.7 -34.5°
